Regional Weather Roundup
Issued by NWS Little Rock, AR

Home | Current Version | Previous Version | Graphics & Text | Print | Product List | Glossary On
Versions: 1 2 3 4 5 6 7 8 9 10 11 12 13 14 15 16 17 18 19 20 21 22 23 24 25 26 27 28 29 30 31 32 33 34 35 36 37 38 39 40 41 42 43 44 45 46 47
000
ASUS44 KLZK 060305
RWRLZK

WEATHER ROUNDUP FOR ARKANSAS
NATIONAL WEATHER SERVICE LITTLE ROCK AR
900 PM CST THU MAR 05 2015

NOTE: "FAIR" INDICATES FEW OR NO CLOUDS BELOW 12,000 FEET WITH NO
SIGNIFICANT WEATHER AND/OR OBSTRUCTIONS TO VISIBILITY.

ARZ001-003-010-029-060400-
NORTHWEST ARKANSAS

CITY           SKY/WX    TMP DP  RH WIND       PRES   REMARKS
FAYETTEVILLE   CLEAR     25  20  81 CALM      30.53R
FORT SMITH     CLEAR     33  22  63 CALM      30.57R
HARRISON       CLEAR     24  10  55 CALM      30.52R
BENTONVILLE    CLEAR     28  16  59 E3        30.52S
ROGERS         CLEAR     27  14  58 E3        30.52S
SILOAM SPGS    CLEAR     28  12  50 E3        30.53R
HIGHFILL       CLEAR     29  16  58 E3        30.51S
SPRINGDALE     CLEAR     28  14  54 CALM      30.54R
$$

ARZ004-005-016-060400-
NORTH CENTRAL ARKANSAS

CITY           SKY/WX    TMP DP  RH WIND       PRES   REMARKS
BATESVILLE     CLEAR     28   7  40 CALM      30.57R
FLIPPIN        CLEAR     23  12  63 CALM      30.55R
MTN HOME       CLEAR     26   6  42 CALM      30.54R
$$

ARZ040-041-060400-
WEST CENTRAL ARKANSAS

CITY           SKY/WX    TMP DP  RH WIND       PRES   REMARKS
MENA           CLEAR     28  23  80 CALM      30.55R
MOUNT IDA      CLEAR     28  20  71 CALM      30.54R
$$

ARZ009-017-025-026-028-060400-
NORTHEAST ARKANSAS

CITY           SKY/WX    TMP DP  RH WIND       PRES   REMARKS
CORNING        FAIR      19  14  79 E3        30.61R
JONESBORO      PTCLDY    14  12  92 NE3       30.60R
NEWPORT        PTCLDY    22  14  71 E7        30.61R WCI  14
WALNUT RIDGE   CLEAR     19  10  68 E5        30.60R WCI  13
BLYTHEVILLE    PTCLDY    11   7  84 N6        30.60R WCI   1
$$

ARZ022-023-033-042-044-060400-
CENTRAL ARKANSAS

CITY           SKY/WX    TMP DP  RH WIND       PRES   REMARKS
LITTLE ROCK    CLEAR     26  18  71 CALM      30.59R
N LITTLE ROCK  CLEAR     30  14  51 N5        30.59R WCI  25
JACKSONVILLE   CLEAR     22  17  81 W2        30.57R
SEARCY         CLEAR     27  11  51 NW3       30.60R
HOT SPRINGS    CLEAR     27  19  72 CALM      30.57R
RUSSELLVILLE   CLEAR     28  17  63 CALM      30.57R
CLINTON        FAIR      23  19  86 CALM      30.60R
$$

ARZ036-060400-
EAST ARKANSAS

CITY           SKY/WX    TMP DP  RH WIND       PRES   REMARKS
WEST MEMPHIS   PTCLDY    20  12  71 N6        30.59R WCI  12
$$

ARZ050-053-066-070-073-060400-
SOUTHWEST ARKANSAS

CITY           SKY/WX    TMP DP  RH WIND       PRES   REMARKS
ARKADELPHIA    FAIR      29  29 100 CALM      30.60R
CAMDEN         CLEAR     27  21  80 CALM      30.59R
TEXARKANA      CLEAR     30  22  72 CALM      30.58R
EL DORADO      CLEAR     27  22  81 CALM      30.58R
DE QUEEN       CLEAR     29  25  85 CALM      30.58R
$$

ARZ056-057-069-060400-
SOUTHEAST ARKANSAS

CITY           SKY/WX    TMP DP  RH WIND       PRES   REMARKS
PINE BLUFF     CLEAR     26  17  68 CALM      30.59R
STUTTGART      CLEAR     27  16  63 NE3       30.59R
MONTICELLO     CLEAR     28  19  69 CALM      30.58R

$$





USA.gov is the U.S. government's official web portal to all federal, state and local government web resources and services.